PROGRESS MS-15

Last updated on Sat Jul 25 2020 00:02:11 GMT+0000 (Coordinated Universal Time)

1 45937U 20050A 20205.72057870 -.00000568 00000-0 -20933-5 0 9993 2 45937 51.6428 167.6423 0001255 142.2517 224.6258 15.49514345 11

Satellite not in orbit

PROGRESS MS-15